Погода в Ежево

Россия / Удмуртская Республика     58°01′31″N   52°13′36″E
темп.,
°C
ветер,
м/с
пор.,
м/с
влажн.,
%
обл.,
%
осадки,
мм/ч
давл.,
гПа
погр.,
м
10 мая, пн
пн1001:00+13ююв396293 0.0 1016145
04:00+12ююв3116799 0.0 1018181
07:00+15ююв31065100 0.0 1018320
10:00+16ююз4861100 0.1 1020311
13:00+21зюз3648100 0.0 10211105
16:00+21ююв3648100 0.0 1021599
19:00+17с3772100 0.0 1023219
22:00+14св2480100 0.0 102498
11 мая, вт
вт1101:00+13ссв3587100 0.1 1025108
04:00+12св3797100 0.1 1026179
07:00+13ссв348760 0.0 1028305
10:00+17ссв22675 0.0 1028664
13:00+21ссз22559 0.0 10281116
16:00+21сз32535 0.0 10281298
19:00+19ссз23635 0.0 102892
22:00+14св34765 0.0 102966
12 мая, ср
ср1201:00+13св23826 0.0 103039
04:00+12всв228827 0.0 103023
07:00+15всв23765 0.0 1031192
10:00+19в22603 0.0 1031771
13:00+23ю12480 0.0 10291377
16:00+24зсз23430 0.0 10291797
19:00+21с23563 0.0 102853
22:00+17св22654 0.0 102911
13 мая, чт
чт1301:00+15всв116820 0.0 102911
04:00+14в11712 0.0 102911
07:00+18в12624 0.0 1029107
10:00+23юв22463 0.0 1028727
13:00+25ююз233692 0.0 10272470
16:00+26юз24325 0.0 10262503
19:00+22ююз375130 0.0 1025166
22:00+17ююз355147 0.0 102665
14 мая, пт
пт1401:00+15юз116163 0.0 102611
04:00+15ю226279 0.0 102616
07:00+17ююз256244 0.0 1026155
10:00+22ююз454534 0.0 1025617
13:00+25юз453568 0.0 10231609
16:00+26юз463587 0.0 10231933
19:00+22юз235361 0.0 102157
22:00+18юз366255 0.0 1021110